When you browse on this site, cookies collect data to enhance your experience and personalize the content and advertising you see.
Visit our Privacy Policy to learn more. By continuing to use the site, you agree to this use of cookies and data.
  • în România
  • Lista ţărilor
  • Pe 7 zile
  • Temperatura apei
  • Hartă satelitară
  • Meteo pe hartă
  • Widget-uri
  • user-avatar
    Intrare

    Meteo pe oră la Sakkhar

    Astăzi, 26 Mai, Duminică

    Timp Temperatura Precipitaţii Vânt Presiune Umiditate
    00:00 +39°C° 0 mm 2 m/s 746 mmHg 11%
    01:00 +39°C° 0 mm 2 m/s 746 mmHg 12%
    02:00 +37°C° 0 mm 1 m/s 746 mmHg 12%
    03:00 +37°C° 0 mm 1 m/s 746 mmHg 13%
    04:00 +36°C° 0 mm 1 m/s 746 mmHg 13%
    05:00 +35°C° 0 mm 1 m/s 746 mmHg 14%
    06:00 +35°C° 0 mm 0 m/s 746 mmHg 13%
    07:00 +36°C° 0 mm 0 m/s 746 mmHg 11%
    08:00 +37°C° 0 mm 0 m/s 747 mmHg 10%
    09:00 +42°C° 0 mm 1 m/s 747 mmHg 9%
    10:00 +43°C° 0 mm 1 m/s 747 mmHg 8%
    11:00 +45°C° 0 mm 2 m/s 746 mmHg 7%
    12:00 +46°C° 0 mm 2 m/s 746 mmHg 6%
    13:00 +47°C° 0 mm 2 m/s 746 mmHg 6%
    14:00 +47°C° 0 mm 2 m/s 745 mmHg 5%
    15:00 +47°C° 0 mm 2 m/s 745 mmHg 5%
    16:00 +48°C° 0 mm 2 m/s 744 mmHg 5%
    17:00 +48°C° 0 mm 2 m/s 744 mmHg 5%
    18:00 +47°C° 0 mm 2 m/s 744 mmHg 5%
    19:00 +45°C° 0 mm 1 m/s 744 mmHg 6%
    20:00 +44°C° 0 mm 1 m/s 744 mmHg 7%
    21:00 +40°C° 0 mm 0 m/s 744 mmHg 7%
    22:00 +39°C° 0 mm 0 m/s 745 mmHg 8%
    23:00 +38°C° 0 mm 0 m/s 745 mmHg 8%

    Mâine, 27 Mai, Luni

    Timp Temperatura Precipitaţii Vânt Presiune Umiditate
    00:00 +38°C° 0 mm 0 m/s 745 mmHg 8%
    01:00 +37°C° 0 mm 0 m/s 745 mmHg 8%
    02:00 +39°C° 0 mm 1 m/s 744 mmHg 9%
    03:00 +39°C° 0 mm 1 m/s 744 mmHg 9%
    04:00 +37°C° 0 mm 1 m/s 744 mmHg 9%
    05:00 +34°C° 0 mm 0 m/s 744 mmHg 10%
    06:00 +39°C° 0 mm 1 m/s 745 mmHg 9%
    07:00 +40°C° 0 mm 2 m/s 746 mmHg 9%
    08:00 +42°C° 0 mm 2 m/s 746 mmHg 8%
    09:00 +43°C° 0 mm 2 m/s 746 mmHg 8%
    10:00 +45°C° 0 mm 2 m/s 746 mmHg 8%
    11:00 +46°C° 0 mm 1 m/s 746 mmHg 7%
    12:00 +47°C° 0 mm 1 m/s 746 mmHg 7%
    13:00 +47°C° 0 mm 1 m/s 745 mmHg 6%
    14:00 +48°C° 0 mm 1 m/s 745 mmHg 5%
    15:00 +48°C° 0 mm 1 m/s 745 mmHg 5%
    16:00 +48°C° 0 mm 1 m/s 744 mmHg 5%
    17:00 +48°C° 0 mm 1 m/s 744 mmHg 5%
    18:00 +47°C° 0 mm 1 m/s 744 mmHg 6%
    19:00 +46°C° 0 mm 1 m/s 744 mmHg 6%
    20:00 +45°C° 0 mm 1 m/s 744 mmHg 7%
    21:00 +45°C° 0 mm 1 m/s 744 mmHg 8%
    22:00 +44°C° 0 mm 1 m/s 745 mmHg 8%
    23:00 +43°C° 0 mm 1 m/s 745 mmHg 9%

    Poimâine, 28 Mai, Marţi

    Timp Temperatura Precipitaţii Vânt Presiune Umiditate
    00:00 +42°C° 0 mm 1 m/s 745 mmHg 9%
    01:00 +42°C° 0 mm 1 m/s 745 mmHg 10%
    02:00 +41°C° 0 mm 1 m/s 744 mmHg 11%
    03:00 +41°C° 0 mm 1 m/s 744 mmHg 11%
    04:00 +40°C° 0 mm 1 m/s 744 mmHg 11%
    05:00 +39°C° 0 mm 1 m/s 744 mmHg 12%
    06:00 +41°C° 0 mm 1 m/s 745 mmHg 11%
    07:00 +42°C° 0 mm 2 m/s 745 mmHg 10%
    08:00 +45°C° 0 mm 2 m/s 746 mmHg 9%
    09:00 +46°C° 0 mm 2 m/s 746 mmHg 9%
    10:00 +47°C° 0 mm 2 m/s 746 mmHg 8%
    11:00 +48°C° 0 mm 2 m/s 746 mmHg 8%
    12:00 +49°C° 0 mm 2 m/s 745 mmHg 7%
    13:00 +50°C° 0 mm 2 m/s 745 mmHg 6%
    14:00 +50°C° 0 mm 2 m/s 744 mmHg 5%
    15:00 +50°C° 0 mm 2 m/s 744 mmHg 5%
    16:00 +50°C° 0 mm 2 m/s 743 mmHg 5%
    17:00 +50°C° 0 mm 2 m/s 743 mmHg 5%
    18:00 +49°C° 0 mm 2 m/s 743 mmHg 5%
    19:00 +48°C° 0 mm 2 m/s 744 mmHg 5%
    20:00 +47°C° 0 mm 2 m/s 744 mmHg 5%
    21:00 +45°C° 0 mm 1 m/s 744 mmHg 6%
    22:00 +44°C° 0 mm 1 m/s 744 mmHg 6%
    23:00 +43°C° 0 mm 1 m/s 745 mmHg 7%

    29 Mai, Miercuri

    Timp Temperatura Precipitaţii Vânt Presiune Umiditate
    00:00 +42°C° 0 mm 2 m/s 744 mmHg 9%
    01:00 +42°C° 0 mm 2 m/s 744 mmHg 12%
    02:00 +42°C° 0 mm 3 m/s 744 mmHg 15%
    03:00 +40°C° 0 mm 2 m/s 744 mmHg 16%
    04:00 +39°C° 0 mm 2 m/s 744 mmHg 17%
    05:00 +39°C° 0 mm 1 m/s 744 mmHg 18%
    06:00 +40°C° 0 mm 1 m/s 744 mmHg 17%
    07:00 +41°C° 0 mm 2 m/s 745 mmHg 16%
    08:00 +42°C° 0 mm 2 m/s 745 mmHg 15%
    09:00 +45°C° 0 mm 2 m/s 745 mmHg 13%
    10:00 +46°C° 0 mm 1 m/s 745 mmHg 10%
    11:00 +47°C° 0 mm 1 m/s 745 mmHg 8%
    12:00 +48°C° 0 mm 1 m/s 745 mmHg 7%
    13:00 +50°C° 0 mm 2 m/s 744 mmHg 5%
    14:00 +51°C° 0 mm 2 m/s 743 mmHg 4%
    15:00 +51°C° 0 mm 2 m/s 743 mmHg 4%
    16:00 +51°C° 0 mm 2 m/s 742 mmHg 4%
    17:00 +51°C° 0 mm 2 m/s 742 mmHg 4%
    18:00 +50°C° 0 mm 2 m/s 742 mmHg 4%
    19:00 +49°C° 0 mm 2 m/s 743 mmHg 4%
    20:00 +46°C° 0 mm 1 m/s 743 mmHg 4%
    21:00 +46°C° 0 mm 1 m/s 743 mmHg 4%
    22:00 +45°C° 0 mm 1 m/s 743 mmHg 5%
    23:00 +44°C° 0 mm 1 m/s 744 mmHg 5%

    30 Mai, Joi

    Timp Temperatura Precipitaţii Vânt Presiune Umiditate
    00:00 +43°C° 0 mm 1 m/s 743 mmHg 7%
    01:00 +42°C° 0 mm 2 m/s 743 mmHg 8%
    02:00 +41°C° 0 mm 2 m/s 743 mmHg 10%
    03:00 +41°C° 0 mm 2 m/s 743 mmHg 10%
    04:00 +40°C° 0 mm 2 m/s 743 mmHg 10%
    05:00 +39°C° 0 mm 2 m/s 743 mmHg 10%
    06:00 +41°C° 0 mm 2 m/s 743 mmHg 9%
    07:00 +43°C° 0 mm 3 m/s 744 mmHg 9%
    08:00 +44°C° 0 mm 3 m/s 745 mmHg 8%
    09:00 +46°C° 0 mm 3 m/s 744 mmHg 7%
    10:00 +49°C° 0 mm 4 m/s 744 mmHg 6%
    11:00 +51°C° 0 mm 4 m/s 744 mmHg 6%
    12:00 +51°C° 0 mm 4 m/s 744 mmHg 5%
    13:00 +52°C° 0 mm 4 m/s 743 mmHg 5%
    14:00 +52°C° 0 mm 3 m/s 742 mmHg 5%
    15:00 +52°C° 0 mm 3 m/s 742 mmHg 5%
    16:00 +52°C° 0 mm 3 m/s 742 mmHg 5%
    17:00 +53°C° 0 mm 3 m/s 741 mmHg 5%
    18:00 +51°C° 0 mm 3 m/s 742 mmHg 5%
    19:00 +50°C° 0 mm 3 m/s 742 mmHg 5%
    20:00 +48°C° 0 mm 2 m/s 742 mmHg 6%
    21:00 +47°C° 0 mm 2 m/s 742 mmHg 6%
    22:00 +46°C° 0 mm 2 m/s 743 mmHg 6%
    23:00 +45°C° 0 mm 2 m/s 743 mmHg 6%

    31 Mai, Vineri

    Timp Temperatura Precipitaţii Vânt Presiune Umiditate
    00:00 +45°C° 0 mm 2 m/s 743 mmHg 7%
    01:00 +43°C° 0 mm 2 m/s 742 mmHg 8%
    02:00 +42°C° 0 mm 2 m/s 742 mmHg 8%
    03:00 +43°C° 0 mm 3 m/s 742 mmHg 9%
    04:00 +42°C° 0 mm 3 m/s 742 mmHg 10%
    05:00 +40°C° 0 mm 3 m/s 742 mmHg 11%
    06:00 +43°C° 0 mm 4 m/s 743 mmHg 10%
    07:00 +44°C° 0 mm 4 m/s 743 mmHg 9%
    08:00 +47°C° 0 mm 5 m/s 744 mmHg 8%
    09:00 +48°C° 0 mm 5 m/s 744 mmHg 7%
    10:00 +50°C° 0 mm 5 m/s 744 mmHg 6%
    11:00 +53°C° 0 mm 6 m/s 744 mmHg 5%
    12:00 +53°C° 0 mm 6 m/s 743 mmHg 5%
    13:00 +54°C° 0 mm 6 m/s 743 mmHg 5%
    14:00 +54°C° 0 mm 5 m/s 742 mmHg 5%
    15:00 +54°C° 0 mm 6 m/s 742 mmHg 5%
    16:00 +54°C° 0 mm 6 m/s 741 mmHg 5%
    17:00 +54°C° 0 mm 6 m/s 741 mmHg 4%
    18:00 +51°C° 0 mm 4 m/s 741 mmHg 4%
    19:00 +50°C° 0 mm 3 m/s 741 mmHg 4%
    20:00 +48°C° 0 mm 2 m/s 742 mmHg 4%
    21:00 +47°C° 0 mm 2 m/s 742 mmHg 5%
    22:00 +46°C° 0 mm 2 m/s 742 mmHg 5%
    23:00 +45°C° 0 mm 2 m/s 742 mmHg 6%
    Arată mai mult